Simultaneous Nadir Overpasses (SNOs) Predictions

Prediction of SNOs between GOES-15 and NOAA-20 Satellite Orbit:

Table of predicted SNOs for the next 14.0 days since TLE Epoch: 10/15/2023
Index Date Time (GOES-15) GOES-15 Lat,Lon NOAA-20 Lat,Lon Distance(km) Time Diff (sec)
1 10/17/2023 08:14:00 -0.22, 79.55 -0.54, 78.23 151.23 80
2 10/18/2023 07:52:38 -0.24, 78.49 0.70, 82.71 481.65 80
3 10/19/2023 20:14:29 0.22, 76.88 0.09, 77.37 55.72 80
4 10/21/2023 08:39:08 -0.19, 75.26 -0.94, 72.00 371.73 80
5 10/22/2023 08:17:46 -0.21, 74.20 0.31, 76.48 260.89 80
6 10/23/2023 20:42:16 0.18, 72.58 0.53, 71.15 163.56 80
7 10/24/2023 20:20:54 0.20, 71.53 -0.73, 75.63 468.02 80
8 10/26/2023 08:42:53 -0.18, 69.90 -0.11, 70.26 40.85 80
9 10/27/2023 21:07:24 0.15, 68.27 0.88, 64.92 381.69 80
10 10/28/2023 20:46:01 0.18, 67.22 -0.33, 69.41 250.03 80
